Location: Halcombe
(40.1500°S, 175.5000°E)
Time: 02:05:58
(UTC+00:00)

Daily predictions for brighter satellites

Satellite Brightness Start Highest point End
(mag) Time Altitude Azimuth Time Altitude Azimuth Time Altitude Azimuth
Meteor 2-9 Rocket 4.3 05:27:24 10° N 05:32:47 83° W 05:38:11 10° S
Timation 2 Rocket 4.5 05:26:50 10° SSW 05:32:52 38° ESE 05:38:36 10° NE
Cosmos 2322 Rocket 3.9 05:32:01 10° WNW 05:36:56 29° WSW 05:41:53 10° S
Okean 3 Rocket 3.7 05:34:24 10° N 05:38:42 56° E 05:43:03 10° SSE
Lacrosse 5 rocket 3.1 05:35:46 10° WSW 05:38:51 31° NW 05:41:59 10° N
SKYMED 2 3.7 05:35:46 10° N 05:40:08 83° WNW 05:44:35 10° SSW
Cosmos 676 Rocket 4.1 05:35:34 10° SSW 05:40:54 59° ESE 05:46:09 10° NNE
Cosmos 2219 Rocket 3.0 05:36:11 10° NW 05:41:42 53° WSW 05:47:18 10° SSE
Cosmos 2333 Rocket 4.1 05:37:45 10° WNW 05:42:29 26° SW 05:47:17 10° S
Cosmos 1300 4.0 05:43:13 10° ENE 05:45:02 14° E 05:46:52 10° SE
Cosmos 1624 Rocket 4.5 05:41:10 10° NNW 05:46:26 67° WSW 05:51:44 10° SSE
SAR-Lupe-1 4.1 05:43:38 10° SSE 05:47:18 62° ENE 05:50:52 10° N
Cosmos 1954 Rocket 4.1 05:42:06 10° SSW 05:47:29 88° ESE 05:52:45 10° NNE
Cosmos 2123 Rocket 4.5 05:42:21 10° S 05:48:19 40° ESE 05:54:11 10° NE
Meteor 1-23 Rocket 4.3 05:43:13 10° S 05:48:45 56° ESE 05:54:14 10° NNE
Cosmos 1975 2.8 05:46:16 10° N 05:50:01 79° W 05:53:50 10° S
Cosmos 371 Rocket 4.0 05:46:29 10° S 05:50:46 30° ESE 05:55:01 10° NE
ATLAS CENTAUR R/B 1.7 05:48:45 10° N 05:51:38 30° ENE 05:54:05 12° ESE
Cosmos 1484 Rocket 3.1 05:50:10 10° S 05:53:41 61° WSW 05:57:06 10° NNW
Cosmos 2056 Rocket 4.4 05:51:33 10° NW 05:56:40 52° WSW 06:01:57 10° S
CBERS-1 4.0 05:51:46 10° SSE 05:56:57 86° ENE 06:02:04 10° NNW
Cosmos 1943 Rocket 3.0 05:53:50 10° S 05:58:31 26° SE 06:03:08 10° ENE
Cosmos 2278 Rocket 3.0 05:53:58 10° S 05:58:56 29° ESE 06:03:51 10° ENE
Lacrosse 4 Rocket 2.7 05:58:36 10° NNE 06:01:45 21° ENE 06:03:46 15° ESE
ARIANE 6 FM1 Upper Stage 2.9 05:59:11 10° NW 06:03:40 85° WSW 06:08:07 11° SE
Cosmos 1110 Rocket 4.0 06:01:15 10° N 06:06:23 65° ENE 06:11:37 10° SSE
USA 276 2.1 06:04:15 10° WNW 06:06:26 44° SSW 06:07:53 19° SE
Cosmos 1980 4.2 06:01:30 10° N 06:06:43 39° ENE 06:11:43 11° SE
Cosmos 1408 Rocket 3.5 06:03:54 10° N 06:08:20 72° E 06:12:50 10° SSE
COSMOS 2428 2.8 06:05:16 10° NNW 06:10:58 82° WSW 06:16:45 10° SSE
Meteor 2-14 Rocket 4.4 06:05:10 10° S 06:11:24 71° E 06:17:33 10° NNE
Tiangong -1.2 06:08:24 10° W 06:11:33 48° NNW 06:14:42 10° NE
Cosmos 1934 Rocket 3.9 06:06:28 10° N 06:12:29 65° E 06:18:33 10° SSE
Cosmos 1515 Rocket 3.9 06:08:05 10° SSW 06:12:34 73° W 06:17:00 10° N
Cosmos 1470 2.6 06:13:16 10° NNW 06:16:47 75° W 06:20:22 10° S
Meteor 1-21 4.2 06:12:10 10° S 06:17:55 82° E 06:23:40 10° N
SJ 16-02 1.3 06:15:22 10° SSW 06:19:46 85° WNW 06:24:07 10° NNE
COSMOS 2455 3.5 06:14:24 10° N 06:19:49 36° ENE 06:23:29 19° SE
Cosmos 1605 Rocket 4.4 06:14:03 10° NNE 06:19:55 43° E 06:25:56 10° SSE
IGS 5A 3.5 06:15:56 10° SSE 06:19:56 54° E 06:23:53 10° N
Cosmos 1500 Rocket 3.4 06:15:59 10° N 06:20:17 80° E 06:24:40 10° S
CZ-4C R/B 4.0 06:19:08 10° S 06:20:55 11° SSE 06:21:42 11° SSE
Okean 3 4.0 06:19:10 10° SSE 06:22:58 32° ESE 06:26:41 10° NE
Cosmos 2322 4.5 06:19:41 10° NW 06:25:15 53° WSW 06:30:53 10° SSE
CZ-2D R/B 2.8 06:27:25 11° SSE 06:30:37 87° ENE 06:33:58 10° NNW
NOSS 3-3 (C) 3.7 06:24:41 10° SSW 06:30:58 64° SE 06:36:13 10° NE
BREEZE M DEB (TANK) 3.8 06:29:58 10° SSW 06:30:28 11° S 06:30:28 11° S
NOSS 3-2 (C) 4.5 06:23:34 10° NW 06:32:48 74° SW 06:40:33 11° SSE
Cosmos 1302 Rocket 4.3 06:28:02 10° N 06:33:00 44° ENE 06:35:57 22° SE
CZ-2D R/B 4.1 06:33:18 29° E 06:33:18 29° E 06:36:42 10° NNE
Cosmos 1850 Rocket 3.9 06:29:09 10° SSW 06:34:26 67° ESE 06:39:37 10° NNE
ATLAS 5 CENTAUR R/B 4.5 06:30:38 10° WSW 06:34:35 22° WNW 06:37:57 10° NNW
Delta 2 Rocket 4.1 06:32:13 10° NW 06:35:16 32° NNE 06:36:29 25° NE
IRS-P3 4.1 06:31:06 10° SSE 06:36:27 60° ENE 06:41:44 10° N
Cosmos 2237 Rocket 2.2 06:31:59 10° N 06:37:37 68° ENE 06:41:55 18° SSE
SMAP 3.0 06:34:00 10° SSE 06:38:46 79° ENE 06:43:27 10° N
Cosmos 2084 Rocket 3.7 06:37:29 10° NNW 06:41:23 44° ENE 06:42:12 39° E
AQUARIUS 4.2 06:42:00 24° SSE 06:44:34 55° E 06:48:55 10° N
IRAS Rocket 4.2 06:39:31 10° SSE 06:45:15 83° ENE 06:50:55 10° NNW
SL-08 R/B 3.5 06:42:16 10° NE 06:46:50 46° ESE 06:51:32 10° S
OAO 3 Rocket 3.9 06:43:58 10° WNW 06:48:37 46° N 06:50:40 29° ENE
YAOGAN 11 3.9 06:47:14 10° NNE 06:51:33 78° ESE 06:55:53 10° S
USA 238 DEB 4.0 06:43:53 10° NNW 06:51:53 68° ENE 06:56:35 26° SE
USA 238 4.0 06:43:59 10° NNW 06:52:00 67° ENE 06:56:40 26° SE
Cosmos 1607 3.9 06:47:18 10° SSW 06:53:46 75° ESE 07:00:09 10° NE
Meteor 2-21 Rocket 4.4 06:50:06 10° S 06:56:26 89° E 07:02:39 10° N
ARIANE 5 R/B 3.0 06:51:23 10° S 06:56:33 62° WSW 07:01:36 10° NNW
Cosmos 968 Rocket 3.8 06:52:37 10° SSW 06:57:47 69° WNW 07:02:56 10° N
BREEZE-M DEB (TANK) 4.1 06:56:49 10° W 07:00:07 52° SSW 07:03:22 29° SE
ACS3 Solar Sail 4.2 06:57:57 10° SSW 07:02:10 19° WSW 07:06:19 10° WNW
Landsat 7 3.6 07:10:04 42° SSE 07:11:42 86° ENE 07:16:23 10° NNW
Cosmos 724 4.3 07:10:19 10° SSW 07:16:07 79° WNW 07:21:33 12° NNE
Cosmos 967 Rocket 4.4 07:12:27 10° NNW 07:18:53 82° ENE 07:21:00 46° SE
ATLAS CENTAUR R/B 3.4 07:25:32 10° W 07:27:27 16° SW 07:27:27 16° SW
SL-19 R/B 4.2 07:29:56 52° SSE 07:31:30 88° E 07:37:05 10° NNW
Cosmos 1633 Rocket 3.8 07:32:12 10° NNW 07:35:40 50° NW 07:35:40 50° NW
Lacrosse 4 Rocket 2.9 07:35:48 10° WNW 07:39:24 31° WSW 07:39:24 31° WSW
Cosmos 1943 Rocket 3.2 07:37:08 10° SW 07:42:24 44° WNW 07:47:36 10° N
Cosmos 2278 Rocket 3.4 07:37:47 10° SW 07:43:05 40° WNW 07:48:19 10° N
SL-16 R/B 3.1 07:43:57 10° NNW 07:47:25 39° N 07:47:25 39° N
GEOS 3 Rocket 4.2 07:56:16 56° WSW 07:56:16 56° WSW 08:00:36 10° SW
COSMOS 2455 4.0 08:00:06 10° WNW 08:05:40 38° SW 08:06:40 35° SSW
CZ-4C R/B 4.4 08:05:49 10° SSW 08:06:42 14° SSW 08:06:42 14° SSW
Cosmos 2237 Rocket 4.4 08:18:11 10° W 08:22:12 19° SW 08:23:46 17° SSW
Centaur D AC-29 4.2 08:27:31 10° NW 08:29:08 13° NNW 08:29:08 13° NNW
CZ-3 Stage 3 4.3 08:33:50 10° W 08:45:17 29° NW 08:45:24 29° NW
